Location: Jackson Park
(37.2862°N, 79.9123°W)
Time: 12:09:10
(UTC+00:00)

Vanguard 3 - Pass Details

Date: 10 May 2026
Orbit: 507 x 3204 km, 33.3° (Epoch: 11 June)

Event Time Altitude Azimuth Distance (km) Brightness Sun altitude
Rises 18:50:22 0° 224° (SW) 6,736 12.2 61.6°
Reaches altitude 10° 18:54:50 10° 219° (SW) 5,914 12.2 60.8°
Maximum altitude 19:12:55 50° 151° (SSE) 3,707 11.2 57.8°
Drops below altitude 10° 19:28:42 10° 83° (E) 5,251 11.1 55.0°
Sets 19:32:21 0° 79° (ENE) 5,967 11.2 54.4°
